FW2608 Weather Reports


Display with metric or nautical units.
time (UTC)temp
F
wind
direction
speed
MPH
gust
MPH
rain 1hr
in
rain 24hr
in
rain mn
in
humidity
%
barometer
mb
20260505210031 68 273 11.0 23.0 0.00 0.00 0.00 57 1014.6
20260505200037 68 279 8.0 24.0 0.00 0.00 0.00 57 1015.1
20260505194609 68 276 10.0 23.0 0.00 0.00 0.00 58 1015.2
20260505193135 67 280 10.0 29.0 0.00 0.00 0.00 58 1015.4
20260505191537 67 287 11.0 25.0 0.00 0.00 0.00 58 1015.3
20260505183107 65 288 10.0 24.0 0.00 0.00 0.00 61 1015.6
20260505181531 65 285 11.0 24.0 0.00 0.00 0.00 62 1015.7
20260505180032 65 285 8.0 21.0 0.00 0.00 0.00 63 1015.7
20260505174536 64 278 9.0 24.0 0.00 0.00 0.00 64 1015.7
20260505173035 63 286 9.0 23.0 0.00 0.00 0.00 65 1015.7
20260505171535 63 287 10.0 23.0 0.00 0.00 0.00 67 1015.6
20260505170034 62 286 10.0 22.0 0.00 0.00 0.00 68 1015.6
20260505164535 62 284 10.0 24.0 0.00 0.00 0.00 69 1015.6
20260505161609 61 282 9.0 24.0 0.00 0.00 0.00 70 1015.5
20260505153034 60 258 8.0 20.0 0.00 0.00 0.00 74 1015.5
20260505151533 58 249 9.0 20.0 0.00 0.00 0.00 76 1015.5
20260505124608 55 255 8.0 19.0 0.00 0.00 0.00 81 1014.6
20260505123106 56 253 8.0 18.0 0.00 0.00 0.00 81 1014.5
20260505114532 56 261 6.0 18.0 0.00 0.00 0.00 80 1014.2
20260505113033 56 248 6.0 16.0 0.00 0.00 0.00 79 1014.2
20260505101530 58 247 6.0 14.0 0.00 0.00 0.00 77 1013.7
20260505100036 58 241 6.0 14.0 0.00 0.00 0.00 77 1013.6
20260505094531 58 248 5.0 13.0 0.00 0.00 0.00 76 1013.5
20260505091535 60 245 6.0 18.0 0.00 0.00 0.00 74 1013.2
20260505090036 60 244 6.0 17.0 0.00 0.00 0.00 73 1012.9
20260505084642 61 236 7.0 19.0 0.00 0.00 0.00 73 1012.8
20260505081609 62 252 6.0 19.0 0.00 0.00 0.00 73 1012.7
20260505074535 63 245 7.0 18.0 0.00 0.00 0.00 73 1012.5
20260505073109 63 245 6.0 16.0 0.00 0.00 0.00 73 1012.4
20260505071532 64 245 6.0 16.0 0.00 0.00 0.00 72 1012.3
20260505070035 64 245 4.0 11.0 0.00 0.00 0.00 70 1012.2
20260505063034 65 257 5.0 13.0 0.00 0.00 0.00 68 1011.9
20260505054532 66 259 3.0 14.0 0.00 0.00 0.00 66 1011.8
20260505053031 66 252 6.0 15.0 0.00 0.00 0.00 65 1011.7
20260505041648 68 260 6.0 15.0 0.00 0.00 0.00 59 1010.8
20260505034608 68 270 5.0 11.0 0.00 0.00 0.00 57 1010.4
20260505033033 69 257 5.0 12.0 0.00 0.00 0.00 56 1010.3
20260505030108 70 260 5.0 13.0 0.00 0.00 0.00 55 1009.7
20260505024534 71 252 5.0 14.0 0.00 0.00 0.00 55 1009.6
20260505023110 71 237 5.0 14.0 0.00 0.00 0.00 55 1009.6
20260505021608 71 239 5.0 12.0 0.00 0.00 0.00 54 1009.5
20260505020110 72 235 4.0 9.0 0.00 0.00 0.00 53 1009.4
20260505013110 74 248 6.0 17.0 0.00 0.00 0.00 49 1009.2
20260505011609 75 255 7.0 22.0 0.00 0.00 0.00 49 1009.1
20260505010036 75 258 7.0 20.0 0.00 0.00 0.00 48 1009.1
20260505004530 76 257 10.0 22.0 0.00 0.00 0.00 47 1009.2
20260505003111 76 261 8.0 22.0 0.00 0.00 0.00 47 1009.1
20260505001529 76 267 9.0 24.0 0.00 0.00 0.00 46 1009.0
20260505000038 76 277 9.0 28.0 0.00 0.00 0.00 46 1008.9
20260504234532 77 281 8.0 21.0 0.00 0.00 0.00 46 1008.8
20260504233033 77 287 9.0 23.0 0.00 0.00 0.00 46 1008.8
20260504231535 76 285 8.0 19.0 0.00 0.00 0.00 47 1008.9
20260504230036 76 286 9.0 21.0 0.00 0.00 0.00 47 1009.0
20260504224641 76 297 8.0 18.0 0.00 0.00 0.00 48 1009.3
20260504223109 75 293 9.0 25.0 0.00 0.00 0.00 48 1009.4
20260504221531 75 290 10.0 24.0 0.00 0.00 0.00 49 1009.5
20260504220033 75 286 9.0 23.0 0.00 0.00 0.00 49 1009.6
20260504213033 74 291 11.0 22.0 0.00 0.00 0.00 49 1010.0